Regional Weather Roundup
Issued by NWS

Home | Current Version | Previous Version | Text Only | Print | Product List | Glossary Off
Versions: 1 2 3 4 5 6 7 8 9 10 11 12 13 14 15 16 17 18 19 20 21 22 23 24 25 26 27 28 29 30 31 32 33 34 35 36 37 38 39 40 41 42 43 44 45 46 47 48 49 50

000
ASUS43 KFSD 160602
RWRSD

WEATHER ROUNDUP FOR SOUTH DAKOTA
NATIONAL WEATHER SERVICE SIOUX FALLS SD
1200 AM CST SAT DEC 16 2017

NOTE: "FAIR" INDICATES FEW OR NO CLOUDS BELOW 12,000 FEET WITH NO
SIGNIFICANT WEATHER AND/OR OBSTRUCTIONS TO VISIBILITY.


SDZ001>005-009-010-012>017-160700-
NORTHWEST AND NORTH CENTRAL SOUTH DAKOTA

CITY           SKY/WX    TMP DP  RH WIND       PRES   REMARKS
BUFFALO          N/A     36  21  54 W6        29.62R
FAITH            N/A     38  21  50 W13       29.65R
MOBRIDGE       CLOUDY    38  24  57 NW8       29.60R
$$

SDZ012>016-024>037-041>051-057-063-072>074-160700-
SOUTHWEST AND SOUTH CENTRAL SOUTH DAKOTA

CITY           SKY/WX    TMP DP  RH WIND       PRES   REMARKS
RAPID CTY ARPT CLOUDY    37  15  40 N5        29.69R
PIERRE         PTCLDY    37  24  59 SW6       29.64R
CUSTER         CLOUDY    35  16  45 W8        29.74R WCI  29
ELLSWORTH AFB  CLOUDY    36  15  42 NW3       29.69R
PHILIP         CLOUDY    38  24  57 W9        29.68R
PINE RIDGE     CLOUDY    43  20  39 NW5       29.72R
SPEARFISH      FAIR      39  18  41 W8        29.71R
WINNER         FAIR      42  25  50 W9        29.66S
$$

SDZ004>011-016>023-039-040-160700-
NORTHEAST SOUTH DAKOTA

CITY           SKY/WX    TMP DP  RH WIND       PRES   REMARKS
ABERDEEN       CLOUDY    32  26  78 W5        29.60R WCI  27
WATERTOWN      CLOUDY    31  28  89 W3        29.57R
BROOKINGS      CLOUDY    34  27  75 SW7       29.60R WCI  28
SISSETON         N/A     32  30  92 CALM      29.56R
$$

SDZ017-020-022-023-036>040-048>070-160700-
SOUTHEAST SOUTH DAKOTA

CITY           SKY/WX    TMP DP  RH WIND       PRES   REMARKS
SIOUX FALLS    CLOUDY    37  28  70 SW3       29.62F
HURON          CLOUDY    36  27  69 SW5       29.60R
CHAMBERLAIN    PTCLDY    39  28  64 W9        29.65S
MITCHELL       CLOUDY    39  28  64 W8        29.64R
YANKTON        CLOUDY    37  25  61 CALM      29.65S
$$

ABBREVIATIONS USED IN REMARKS
   TC - TEMPERATURE IN CELSIUS
  WCI - WIND CHILL INDEX
   HX - HEAT INDEX
  VSB - VISIBILITY





USA.gov is the U.S. government's official web portal to all federal, state and local government web resources and services.